This demonstration page uses our WeatherBlox Daily Observations layout. Learn more.

Left ArrowRight Arrow

53.62937, 11.41316

Hourly Observations for July 25, 2022

Temp ( °F °C ) Dew Point ( °F °C ) Humidity (%) Winds ( mph kmh ) Pressure ( in mb ) Visibility ( mi km ) Precip ( " mm )
12:20 am 00:20 Mostly Clear 66 19 59 15 78 78 VRB 1 2 29.94 1014 30 48 N/A
12:50 am 00:50 Mostly Clear 64 18 59 15 83 83 VRB 2 4 29.94 1014 30 48 N/A
1:20 am 01:20 Mostly Clear 63 17 59 15 88 88 ESE 2 4 29.91 1013 30 48 N/A
1:50 am 01:50 Mostly Clear 63 17 59 15 88 88 VRB 1 2 29.91 1013 30 48 N/A
2:20 am 02:20 Mostly Clear 66 19 57 14 73 73 SSE 3 6 29.88 1012 30 48 N/A
2:50 am 02:50 Mostly Clear 68 20 57 14 69 69 S 3 6 29.88 1012 30 48 N/A
3:20 am 03:20 Mostly Clear 68 20 54 12 60 60 SSE 5 7 29.88 1012 30 48 N/A
3:50 am 03:50 Mostly Clear 68 20 54 12 60 60 SSE 3 6 29.88 1012 30 48 N/A
4:20 am 04:20 Mostly Clear 66 19 52 11 60 60 SSE 5 7 29.88 1012 30 48 N/A
4:50 am 04:50 Mostly Clear 66 19 52 11 60 60 S 5 7 29.85 1011 30 48 N/A
5:20 am 05:20 Partly Cloudy 68 20 52 11 56 56 S 5 7 29.85 1011 30 48 N/A
5:50 am 05:50 Mostly Sunny 68 20 52 11 56 56 S 6 9 29.85 1011 30 48 N/A
6:20 am 06:20 Mostly Sunny 70 21 52 11 53 53 S 6 9 29.82 1010 7 11 N/A
6:50 am 06:50 Mostly Sunny 70 21 52 11 53 53 S 5 7 29.82 1010 7 11 N/A
7:20 am 07:20 Mostly Sunny 70 21 54 12 57 57 SSE 6 9 29.82 1010 7 11 N/A
7:50 am 07:50 Mostly Sunny 72 22 54 12 53 53 SSE 6 9 29.79 1009 7 11 N/A
8:20 am 08:20 Mostly Sunny 73 23 54 12 50 50 SSE 6 9 29.79 1009 7 11 N/A
8:50 am 08:50 Mostly Sunny 75 24 54 12 47 47 SSE 6 9 29.79 1009 7 11 N/A
9:20 am 09:20 Mostly Sunny 79 26 55 13 45 45 SSE 6 9 29.76 1008 7 11 N/A
9:50 am 09:50 Mostly Sunny 79 26 55 13 45 45 SE 6 9 29.76 1008 7 11 N/A
10:20 am 10:20 Mostly Sunny 84 29 55 13 37 37 S 8 13 29.76 1008 7 11 N/A
10:50 am 10:50 Mostly Sunny 86 30 55 13 35 35 S 7 11 29.73 1007 7 11 N/A
11:20 am 11:20 Mostly Sunny 86 30 57 14 38 38 VRB 7 11 29.73 1007 7 11 N/A
11:50 am 11:50 Mostly Sunny 88 31 57 14 35 35 VRB 6 9 29.73 1007 7 11 N/A
12:20 pm 12:20 Mostly Sunny 88 31 57 14 35 35 VRB 6 9 29.70 1006 7 11 N/A
12:50 pm 12:50 Mostly Sunny 88 31 55 13 33 33 VRB 6 9 29.70 1006 7 11 N/A
1:20 pm 13:20 Mostly Sunny 88 31 55 13 33 33 VRB 7 11 29.70 1006 7 11 N/A
1:50 pm 13:50 Mostly Sunny 88 31 57 14 35 35 VRB 6 9 29.70 1006 7 11 N/A
2:20 pm 14:20 Mostly Sunny 88 31 57 14 35 35 VRB 6 9 29.70 1006 7 11 N/A
2:50 pm 14:50 Mostly Sunny 90 32 57 14 33 33 VRB 7 11 29.67 1005 7 11 N/A
3:20 pm 15:20 Mostly Sunny 91 33 57 14 32 32 VRB 8 13 29.67 1005 7 11 N/A
3:50 pm 15:50 Mostly Sunny 88 31 55 13 33 33 VRB 7 11 29.67 1005 7 11 N/A
4:20 pm 16:20 Mostly Sunny 88 31 55 13 33 33 VRB 7 11 29.67 1005 7 11 N/A
4:50 pm 16:50 Mostly Sunny 91 33 59 15 34 34 VRB 6 9 29.64 1004 7 11 N/A
5:20 pm 17:20 Partly Cloudy with Nearby Thunderstorms 84 29 61 16 45 45 WNW 15 24 29.68 1005 30 48 N/A
5:50 pm 17:50 Partly Cloudy with Light Rain 73 23 64 18 74 74 WNW 14 22 29.68 1005 30 48 N/A
6:20 pm 18:20 Partly Cloudy with Light Rain 68 20 61 16 78 78 NW 15 24 29.71 1006 30 48 N/A
6:50 pm 18:50 Mostly Cloudy with Light Showers 66 19 63 17 88 88 WNW 12 19 29.71 1006 30 48 N/A
7:20 pm 19:20 Mostly Cloudy with Rain 64 18 63 17 94 94 WNW 9 15 29.74 1007 4 6 N/A
7:50 pm 19:50 Partly Cloudy with Light Rain 66 19 64 18 94 94 WNW 6 9 29.74 1007 30 48 N/A
8:20 pm 20:20 Mostly Sunny 66 19 64 18 94 94 W 6 9 29.74 1007 7 11 N/A
8:50 pm 20:50 Mostly Sunny 66 19 64 18 94 94 W 5 7 29.74 1007 7 11 N/A
9:20 pm 21:20 Mostly Cloudy 66 19 63 17 88 88 W 6 9 29.74 1007 30 48 N/A
9:50 pm 21:50 Mostly Cloudy 64 18 61 16 88 88 VRB 2 4 29.77 1008 30 48 N/A
10:20 pm 22:20 Mostly Clear 63 17 63 17 100 100 VRB 2 4 29.77 1008 30 48 N/A
10:50 pm 22:50 Mostly Clear 63 17 61 16 94 94 VRB 3 6 29.77 1008 30 48 N/A
11:20 pm 23:20 Mostly Clear 61 16 61 16 100 100 VRB 2 4 29.80 1009 30 48 N/A
11:50 pm 23:50 Mostly Cloudy 63 17 61 16 94 94 VRB 2 4 29.80 1009 30 48 N/A

Powered by AerisWeather